Location: Favalello
(42.2939°N, 9.2706°E)
Time: 11:35:18
(UTC+00:00)

YAOGAN 1 - Pass Details

Date: 06 December 2019
Orbit: 619 x 621 km, 98.0° (Epoch: 24 January)

Event Time Altitude Azimuth Distance (km) Brightness Sun altitude
Rises 16:25:02 0° 113° (ESE) 2,891 5.6 -6.5°
Reaches altitude 10° 16:28:39 10° 81° (E) 1,991 4.5 -7.1°
Maximum altitude 16:30:06 12° 61° (ENE) 1,890 4.4 -7.3°
Drops below altitude 10° 16:31:34 10° 41° (NE) 1,996 4.6 -7.6°
Sets 16:35:12 0° 9° (N) 2,908 5.7 -8.2°
